Printer-friendly version

IAU Minor Planet Center

Minor Planet Center

MPEC 2008-H06 : 2008 BT18

The following Minor Planet Electronic Circular may be linked-to from your own Web pages, but must not otherwise be redistributed electronically.


Read MPEC 2008-H05 Read MPEC 2008-H07


M.P.E.C. 2008-H06                                Issued 2008 Apr. 17, 21:49 UT

     The Minor Planet Electronic Circulars contain information on unusual
         minor planets and routine data on comets.  They are published
   on behalf of Commission 20 of the International Astronomical Union by the
          Minor Planet Center, Smithsonian Astrophysical Observatory,
                          Cambridge, MA 02138, U.S.A.

             Prepared using the Tamkin Foundation Computer Network

                              MPC@CFA.HARVARD.EDU
          URL http://www.cfa.harvard.edu/iau/mpc.html  ISSN 1523-6714

                                   2008 BT18

                           Revision to MPEC 2008-C03

Additional Observations:
     K08B18T & 1955 03 14.22639 09 50 25.61 +35 24 17.7                 EH006261
     K08B18T & 1955 03 14.26111 09 50 20.98 +35 25 11.7                 EH006261
     K08B18T  C1998 01 29.33837 08 41 39.08 +23 48 11.0          18.9 R EH006566
     K08B18T  C1998 01 29.34811 08 41 38.10 +23 48 18.4                 EH006566
     K08B18T  C1998 01 29.35787 08 41 37.08 +23 48 25.1          18.7 R EH006566

Observer details:
261 Palomar-DSS.  Measurer R. Matson.  1.2-m Schmidt.
566 Haleakala-NEAT/GEODSS.  Observers R. Bambery, E. Helin, S. Pravdo,
    M. Hicks, K. Lawrence, P. Kervin.  Measurer R. Matson.

First and last observations above in comparison with prediction:
Residuals in seconds of arc (or two decimals in degrees), reference and Delta-T
550314 26111.62- 0.83-    980129 566 0.65- 0.06+    MPO136020   -0.012 day

Orbital elements:
2008 BT18                                           PHA, Earth MOID = 0.0142 AU
Epoch 2008 May 14.0 TT = JDT 2454600.5                  MPC
M 351.69142              (2000.0)            P               Q
n   0.29811852     Peri.  139.04043     -0.38558627     +0.91275543
a   2.2192697      Node   107.88763     -0.87919538     -0.31911404
e   0.5969881      Incl.    8.14987     -0.27989054     -0.25503676
P   3.31           H   18.3           G   0.15           U   2
Residuals in seconds of arc
550314 261  0.2-  0.1+    080206 448  0.2+  0.5-    080301 H45  0.1+  0.1-
550314 261  0.2+  0.2+    080206 673  0.5+  0.3+    080301 H45  0.1+  0.3-
980129 566  0.2+  0.4+    080206 673  0.1+  0.3+    080301 H45  0.3+  0.4-
980129 566  0.3+  0.8+    080206 448  0.3+  0.2+    080301 G96  0.1+  0.4-
980129 566  0.0   0.5+    080206 673  0.4+  0.1-    080301 G96  0.4+  0.4-
080131 704  1.3+  1.1+    080206 673  0.5+  0.1-    080301 G96  0.1+  0.4-
080131 704  0.2+  0.4+    080206 B11  0.2+  0.1-    080301 G96  0.5+  0.2-
080131 704 (2.1+  0.7-)   080206 B11  0.1-  0.2-    080301 560  0.2-  0.0
080131 704  1.0-  1.0+    080207 151  0.7-  0.5+    080301 560  0.1-  0.3-
080201 673  0.8+  0.2-    080207 151  0.2-  0.3+    080301 560  0.3-  0.1-
080201 673  0.6+  0.0     080207 151  0.2+  0.0     080302 130  0.3+  0.5-
080201 673  0.6+  0.4+    080208 A78  1.0+  0.1+    080302 130  0.1-  0.7-
080201 673  0.6+  0.5+    080208 A78  1.3+  0.0     080302 130  0.1+  0.1-
080201 G96  0.2+  0.4-    080208 A78  0.7+  0.0     080302 130  0.0   0.0
080201 G96  0.4+  0.8-    080209 176  0.3-  0.0     080305 703  0.3+  0.4-
080201 G96  0.3+  0.6-    080209 176  0.2-  0.0     080305 703  0.5+  0.7-
080201 J95  0.3-  0.1-    080209 176  0.2-  0.1-    080305 703  0.3-  0.7+
080201 J95  0.2+  0.3-    080209 176  0.1-  0.4-    080305 703  0.4+  0.5-
080201 J95  0.0   0.2-    080209 151  0.9-  0.5+    080307 448  0.2+  0.2-
080202 151  1.1-  0.6-    080209 151  0.8-  0.4+    080307 448  0.2+  0.5-
080202 151  0.6-  0.0     080209 151  0.7-  0.3+    080307 448  0.3+  0.2-
080202 151  0.4-  1.6+    080211 H45  0.5-  0.7-    080307 711  1.0-  1.1+
080203 H55  0.3+  0.0     080211 151  0.5+  0.5+    080307 711  0.8-  1.6+
080203 H55  0.1+  0.1+    080211 151  0.1-  0.4+    080307 711  0.1+  0.3-
080203 H55  0.2+  0.1+    080211 151  1.0-  0.1-    080308 704  0.3+  0.8+
080203 H55  0.0   0.0     080211 A48  0.1-  0.5-    080308 704  0.7-  0.7+
080203 A50  0.1+  0.5-    080211 A48  0.1-  0.2-    080308 704  0.1-  0.1+
080203 A50  0.2-  0.1-    080211 A48  0.0   0.0     080308 704  0.3+  0.5-
080203 A50  0.1-  0.3+    080211 A48  0.2+  0.0     080308 704  0.1-  0.4-
080203 A50  0.6+  0.2+    080213 704 (0.8-  2.3+)   080309 H45  0.1+  0.0
080203 A13  0.5-  0.9+    080213 704  0.8-  1.8+    080309 H45  0.4-  0.2+
080203 A13  0.7-  0.7-    080213 704  1.5-  1.1+    080309 H45  0.2-  0.3-
080203 246  0.1-  0.6-    080213 704  0.5-  1.0+    080311 704  0.1-  0.0
080203 246  0.5-  0.4-    080213 704  1.7-  1.9+    080311 704  0.1+  0.8+
080203 246  0.1+  0.2-    080221 H55  0.1-  0.1+    080311 704  1.1+  0.9+
080203 246  0.0   0.2+    080221 H55  0.1+  0.4-    080311 704  0.5-  0.5-
080203 246  0.3+  0.3-    080221 H55  0.3+  0.2-    080313 703  0.3-  0.3+
080203 246  0.6+  0.4-    080224 A44  0.3+  0.3-    080313 703  0.0   0.1-
080203 246  0.5+  0.1-    080224 A44  0.4+  0.4-    080313 703  1.4-  0.4-
080203 246  0.4+  0.2-    080224 A44  0.1+  0.2+    080313 703  0.7-  0.1+
080203 246  0.0   0.5-    080227 703  0.4-  0.4+    080323 H55  1.8-  0.3-
080203 246  0.3+  0.0     080227 703  0.3+  0.1+    080323 H55  0.1-  0.1-
080203 246  0.2-  0.3-    080227 703  0.5-  0.1+    080323 A17  0.4-  0.6-
080203 246  0.2+  0.1+    080227 703 (3.3-  0.4-)   080323 A17  0.1+  0.6-
080203 246  0.2+  0.1+    080227 H45  0.1-  0.0     080323 A17  0.1-  0.4-
080205 176  0.1+  0.2+    080227 H45  0.1-  0.0     080330 448  0.1+  0.2-
080205 176  0.1+  0.1-    080227 H45  0.1-  0.0     080330 448  0.2+  0.3-
080205 176  0.5+  0.2-    080227 H45  0.1+  0.4-    080330 448  0.0   0.4-
080205 176  0.3+  0.3-    080227 H45  0.1-  0.6-    080330 703  0.5-  0.1-
080205 176  0.7+  0.5-    080227 H45  0.3+  0.2-    080330 703  0.5+  0.1+
080205 143  0.4-  0.2-    080228 H45  0.0   0.6-    080330 703  0.1-  0.2+
080205 143  0.3+  0.2-    080228 H45  0.8+  0.5-    080330 703  0.4+  0.1+
080206 703  1.7-  0.3-    080228 H45  0.1-  0.4-    080405 711  0.4+  0.1+
080206 703  0.3-  0.1-    080228 H45  0.2+  0.3-    080405 711  0.3+  0.2+
080206 703  1.0-  0.5-    080228 H45  0.4+  0.4-    080405 711  0.3+  0.2+
080206 703  0.7-  1.2-    080228 H45  0.4+  0.4-    080406 H45  0.2-  0.2+
080206 291  0.5-  0.1+    080229 704  1.2+  0.5+    080406 H45  0.1+  0.4+
080206 291  0.3-  0.0     080229 704  0.4+  1.1+    080406 H45  0.1+  0.2+
080206 704  0.0   0.8+    080229 704  0.6+  0.3+    080406 H45  0.1-  0.0
080206 291  0.3-  0.1+    080229 704  0.1+  0.1-    080406 H45  0.1+  0.2+
080206 704  1.0+  0.6+    080229 704  0.6+  0.0     080406 H45  0.0   0.3+
080206 704  1.2+  0.9+    080301 H45  0.1+  0.3-    080415 H55  0.1-  0.2+
080206 704  1.4+  0.5+    080301 H45  0.4+  0.6-    080415 H55  0.2+  0.4+
080206 448  0.2+  0.3-    080301 H45  0.1+  0.0     080415 H55  0.3+  0.6+

Ephemeris:
2008 BT18                a,e,i = 2.22, 0.60, 8                   q = 0.8944
Date    TT    R. A. (2000) Decl.     Delta      r     Elong.  Phase     V
2008 04 14    08 18.51   +36 17.3    0.562    1.184    94.0    57.7    19.5
2008 04 24    08 24.73   +36 21.5    0.538    1.106    85.8    65.1    19.5
2008 05 04    08 35.58   +36 12.5    0.502    1.035    78.7    72.9    19.4
2008 05 14    08 49.70   +35 52.7    0.453    0.974    72.4    81.3    19.4
2008 05 24    09 05.32   +35 24.6    0.393    0.929    66.5    90.7    19.3
2008 06 03    09 20.41   +34 49.3    0.322    0.901    60.6   101.2    19.3
2008 06 13    09 32.63   +34 04.5    0.246    0.895    54.3   112.8    19.4
2008 06 23    09 38.45   +32 56.1    0.167    0.910    46.9   125.4    19.5
2008 07 03    09 29.98   +29 59.3    0.0897   0.946    36.5   140.3    19.8
2008 07 13    07 36.06   -00 32.2    0.0194   0.999    22.4   157.2    19.8
2008 07 23    23 05.75   -43 25.4    0.0648   1.064   136.7    40.9    14.1
2008 08 02    22 28.23   -39 18.4    0.141    1.138   149.6    26.8    15.5
2008 08 12    22 14.08   -37 15.2    0.222    1.219   155.5    20.2    16.5
2008 08 22    22 06.03   -35 27.1    0.311    1.302   156.3    18.2    17.3
2008 09 01    22 01.82   -33 36.7    0.411    1.388   153.0    19.3    18.1
2008 09 11    22 01.04   -31 41.1    0.522    1.474   147.4    21.6    18.8
2008 09 21    22 03.25   -29 42.5    0.646    1.559   140.9    24.0    19.4
2008 10 01    22 07.94   -27 42.7    0.782    1.644   134.0    26.0    20.0
2008 10 11    22 14.70   -25 42.5    0.930    1.727   127.0    27.5    20.6
2008 10 21    22 23.10   -23 42.9    1.090    1.808   120.2    28.4    21.0
2008 10 31    22 32.78   -21 44.1    1.259    1.887   113.4    28.9    21.4
2008 11 10    22 43.48   -19 45.9    1.436    1.965   106.7    28.9    21.8
2008 11 20    22 54.95   -17 48.8    1.620    2.040   100.1    28.5    22.2

Timothy B. Spahr             (C) Copyright 2008 MPC           M.P.E.C. 2008-H06

Read MPEC 2008-H05 Read MPEC 2008-H07


Our Web policy. Index to the CBAT/MPC/ICQ pages.


Valid HTML 4.01!